User: anonymous   Login
Location: *
(49.0044°N, 9.5056°E)
Time: 07:49:02
(UTC+00:00)
Language:

In-Cosmos 22 - Orbit

View from above orbital plane
View from above orbital plane
View from above satellite
View from above satellite

Ground track
Ground track

The orbit data is extracted from the following two-line orbital elements,

1 12645U 81075A   19322.46678056 -.00000040  00000-0 -24920-4 0  9995
2 12645  81.2190  66.2530 0062738 260.0316  99.3775 14.18361102979694
Epoch (UTC): 18 November 2019 11:12:09
Eccentricity: 0.0062738
inclination: 81.2190°
perigee height: 785 km
apogee height: 876 km
right ascension of ascending node: 66.2530°
argument of perigee: 260.0316°
revolutions per day: 14.18361102
mean anomaly at epoch: 99.3775°
orbit number at epoch: 97969

The dashed part of the orbit path shows where the satellite is in the earth's shadow,  

DLR